[[{"header":{"parameterUnit":"m.s-1","parameterCategory":1,"la1":30.2991,"la2":30.254,"lo1":-89.0895,"lo2":-89.0444,"dy":0.0017,"dx":0.0017,"nx":28,"ny":28,"refTime":"2026-01-07T09:00:00:Z","depth":0,"parameterNumber":2,"parameterNumberName":"U-component_of_WINDS"},"data":[0,0,0,0,0,0,0,0,0,0,0,0,0,0,0,0,0,0,0,0,0,0,0,0,0,0,0,0,0,0,0,0,0,0,0,0,0,0,0,0,0,0,0,0,0,0,0,0,0,0,0,0,0,0,0,0,0,0,-2.232,-2.2321,0,-2.2404,-2.2405,-2.2406,-2.2453,-2.2453,-2.2454,-2.2454,-2.2543,-2.2545,-2.2548,0,0,0,0,0,0,0,0,0,0,0,0,0,-2.2206,-2.2208,-2.232,-2.2321,-2.2322,-2.2404,-2.2405,-2.2406,-2.2453,-2.2453,-2.2454,-2.2454,-2.2542,-2.2545,-2.2548,0,0,0,0,0,0,0,0,0,0,0,0,0,-2.2269,-2.2209,-2.232,-2.2356,-2.236,-2.2403,-2.2405,-2.2406,-2.2453,-2.2453,-2.2454,-2.2454,-2.2542,-2.2545,-2.2548,-2.2564,0,0,-2.2558,-2.256,0,0,0,0,0,0,0,0,-2.2266,-2.2274,-2.2349,-2.2353,-2.2358,-2.2418,-2.2397,-2.2459,-2.2453,-2.2418,-2.2454,-2.2454,-2.2502,-2.2508,-2.2524,-2.2568,-2.2572,-2.2559,-2.2561,-2.2562,-2.2563,0,0,0,0,0,0,0,-2.2261,-2.227,-2.2354,-2.2351,-2.2356,-2.2369,-2.2378,-2.2409,-2.2458,-2.2421,-2.2425,-2.2434,-2.2504,-2.252,-2.2526,-2.2573,-2.2559,-2.2562,-2.2564,-2.2565,-2.2636,-2.2636,0,0,0,0,0,0,-2.2251,-2.2266,-2.2351,-2.2356,-2.2311,-2.2371,-2.2381,-2.2399,-2.2457,-2.2466,-2.2433,-2.2435,-2.2514,-2.2522,-2.2529,-2.2552,-2.2562,-2.2565,-2.2567,-2.2636,-2.2636,-2.2636,0,0,0,0,0,0,-2.2248,-2.2258,-2.2347,-2.2312,-2.2325,-2.2372,-2.2392,-2.24,-2.2416,-2.2467,-2.2476,-2.2441,-2.2515,-2.2525,-2.2555,-2.2556,-2.2567,-2.257,-2.2636,-2.2636,-2.2636,-2.2597,0,0,0,0,0,0,-2.2245,-2.2257,-2.2262,-2.2312,-2.2326,-2.237,-2.2392,-2.2402,-2.2422,-2.2425,-2.2476,-2.2485,-2.2516,-2.255,-2.2558,-2.2561,-2.2572,-2.2637,-2.2636,-2.2636,-2.2599,-2.2596,-2.2593,0,0,0,0,0,-2.224,-2.2249,-2.2262,-2.2272,-2.2334,-2.237,-2.2379,-2.2413,-2.2421,-2.2428,-2.246,-2.2483,-2.2554,-2.2552,-2.2562,-2.2566,-2.2637,-2.2636,-2.2636,-2.26,-2.2596,-2.2593,0,0,0,0,0,0,-2.22,-2.2256,-2.2271,-2.2296,-2.2328,-2.2378,-2.2387,-2.2408,-2.2439,-2.2442,-2.2485,-2.2496,-2.2522,-2.2547,-2.2544,-2.2585,-2.2598,-2.26,-2.2567,-2.2564,-2.2561,-2.2555,-2.2575,0,0,0,0,0,-2.2193,-2.2216,-2.2265,-2.2282,-2.2297,-2.2339,-2.2356,-2.238,-2.2415,-2.2429,-2.2464,-2.2499,-2.2529,-2.2548,-2.2579,-2.2603,-2.2615,-2.261,-2.2607,-2.2605,-2.2606,-2.2621,-2.262,-2.2635,-2.2635,-2.2635,0,0,-2.2181,-2.2214,-2.2227,-2.2275,-2.2302,-2.2326,-2.235,-2.2375,-2.2394,-2.2434,-2.2464,-2.2491,-2.2532,-2.2559,-2.2573,-2.2581,-2.2604,-2.2605,-2.2602,-2.2605,-2.2621,-2.2619,-2.2618,-2.2635,-2.2635,-2.2635,0,0,-2.217,-2.2197,-2.2214,-2.2241,-2.2282,-2.231,-2.2314,-2.2361,-2.238,-2.2411,-2.2441,-2.2465,-2.2516,-2.2544,-2.2565,-2.2565,-2.2588,-2.2574,-2.256,-2.2574,-2.2573,-2.2572,-2.2573,-2.2572,-2.2575,-2.2575,-2.2575,0,-2.215,-2.2186,-2.2221,-2.2244,-2.2264,-2.23,-2.2318,-2.2343,-2.2392,-2.2406,-2.2414,-2.2479,-2.251,-2.2544,-2.2544,-2.256,-2.2566,-2.2569,-2.257,-2.257,-2.257,-2.257,-2.257,-2.2573,-2.2573,-2.2574,-2.2574,0,-2.2159,-2.2184,-2.2193,-2.2238,-2.2259,-2.228,-2.2319,-2.2337,-2.2359,-2.2387,-2.2418,-2.2456,-2.2495,-2.2505,-2.2527,-2.2543,-2.2547,-2.2562,-2.2576,-2.2566,-2.2567,-2.2568,-2.2571,-2.2571,-2.2572,-2.2572,0,0,-2.2125,-2.2188,-2.2191,-2.2212,-2.2259,-2.228,-2.2303,-2.2339,-2.2354,-2.2387,-2.2407,-2.245,-2.2464,-2.2488,-2.2514,-2.2526,-2.2524,-2.2541,-2.2542,-2.2536,-2.2544,-2.2532,-2.2532,-2.2539,-2.254,-2.254,-2.2541,0,-2.2121,-2.2161,-2.2194,-2.2223,-2.2246,-2.2281,-2.23,-2.2332,-2.2359,-2.2384,-2.2414,-2.2444,-2.246,-2.2475,-2.2489,-2.2521,-2.2527,-2.2522,-2.256,-2.2561,-2.2548,-2.2533,-2.252,-2.2519,-2.2542,-2.2542,-2.2542,0,-2.2122,-2.2152,-2.2182,-2.2227,-2.2239,-2.2255,-2.2292,-2.2315,-2.2352,-2.2371,-2.2397,-2.2424,-2.2451,-2.2462,-2.2501,-2.2497,-2.2514,-2.2533,-2.2534,-2.2539,-2.2551,-2.2537,-2.252,-2.252,-2.2543,-2.2543,-2.2543,0,-2.2094,-2.2142,-2.2167,-2.2184,-2.2236,-2.2247,-2.227,-2.2308,-2.2328,-2.236,-2.2374,-2.2409,-2.2429,-2.2456,-2.2493,-2.2498,-2.2527,-2.2542,-2.2544,-2.2543,-2.2549,-2.2548,-2.2534,-2.256,-2.256,-2.256,-2.256,0,-2.2087,-2.2104,-2.2155,-2.217,-2.2191,-2.2228,-2.2248,-2.2275,-2.2308,-2.2329,-2.2362,-2.2382,-2.2429,-2.2455,-2.2484,-2.2511,-2.252,-2.2536,-2.2544,-2.2533,-2.2531,-2.2546,-2.2547,-2.256,-2.256,-2.256,-2.256,0,-2.2059,-2.2094,-2.2123,-2.217,-2.2182,-2.2195,-2.2237,-2.2253,-2.2281,-2.2309,-2.2317,-2.2362,-2.2395,-2.2433,-2.2479,-2.2498,-2.2523,-2.2534,-2.251,-2.2514,-2.2514,-2.2514,-2.2509,-2.2511,-2.2535,-2.2535,-2.2535,0,-2.2052,-2.2066,-2.2114,-2.213,-2.2151,-2.2177,-2.2197,-2.2235,-2.2255,-2.2299,-2.231,-2.2345,-2.2375,-2.2425,-2.2463,-2.2498,-2.251,-2.2506,-2.2516,-2.2505,-2.2511,-2.2509,-2.2511,-2.2504,-2.2503,-2.2503,-2.2503,0,-2.2036,-2.2052,-2.2079,-2.2111,-2.2134,-2.2162,-2.2191,-2.2203,-2.2248,-2.2269,-2.2301,-2.2324,-2.237,-2.2404,-2.2444,-2.247,-2.2494,-2.2499,-2.2502,-2.2491,-2.2476,-2.2484,-2.2503,-2.2499,-2.25,-2.25,-2.25,-2.25,-2.2019,-2.2032,-2.2068,-2.2097,-2.2123,-2.2149,-2.2167,-2.2197,-2.2224,-2.2263,-2.2285,-2.2317,-2.2355,-2.2411,-2.2435,-2.2462,-2.2471,-2.2474,-2.2475,-2.2476,-2.2473,-2.2472,-2.247,-2.247,-2.247,-2.247,-2.247,0,-2.2004,-2.2028,-2.2054,-2.2094,-2.2116,-2.2135,-2.2169,-2.2188,-2.2215,-2.2248,-2.2276,-2.2313,-2.2347,-2.2387,-2.2423,-2.2437,-2.245,-2.2446,-2.2445,-2.2451,-2.2463,-2.2457,-2.2435,-2.2435,-2.2435,-2.2435,-2.2435,-2.2435,-2.1999,-2.2023,-2.2043,-2.2081,-2.2107,-2.2137,-2.2154,-2.218,-2.2206,-2.2246,-2.2273,-2.2298,-2.2335,-2.2374,-2.2406,-2.2417,-2.2429,-2.2422,-2.2437,-2.2447,-2.245,-2.2453,-2.2448,-2.2424,-2.2424,-2.2423,-2.2422,-2.2422]},{"header":{"parameterUnit":"m.s-1","parameterCategory":1,"la1":30.2991,"la2":30.254,"lo1":-89.0895,"lo2":-89.0444,"dy":0.0017,"dx":0.0017,"nx":28,"ny":28,"refTime":"2026-01-07T09:00:00:Z","depth":0,"parameterNumber":3,"parameterNumberName":"V-component_of_WINDS"},"data":[0,0,0,0,0,0,0,0,0,0,0,0,0,0,0,0,0,0,0,0,0,0,0,0,0,0,0,0,0,0,0,0,0,0,0,0,0,0,0,0,0,0,0,0,0,0,0,0,0,0,0,0,0,0,0,0,0,0,4.4499,4.4501,0,4.4643,4.4645,4.4646,4.4663,4.4661,4.466,4.4658,4.4808,4.4813,4.4818,0,0,0,0,0,0,0,0,0,0,0,0,0,4.4244,4.4248,4.4499,4.4501,4.4503,4.4643,4.4645,4.4647,4.4663,4.4661,4.4659,4.4658,4.4806,4.4812,4.4819,0,0,0,0,0,0,0,0,0,0,0,0,0,4.4368,4.425,4.4499,4.4528,4.4532,4.4642,4.4645,4.4647,4.4663,4.4661,4.4659,4.4657,4.4804,4.4812,4.482,4.4912,0,0,4.4844,4.4847,0,0,0,0,0,0,0,0,4.4361,4.4377,4.4522,4.4526,4.4531,4.4633,4.4609,4.4736,4.4664,4.4613,4.4658,4.4656,4.4751,4.4764,4.4795,4.4919,4.4926,4.4845,4.485,4.4853,4.4855,0,0,0,0,0,0,0,4.4352,4.4371,4.4556,4.4524,4.4529,4.4535,4.455,4.4634,4.4693,4.4618,4.4619,4.4636,4.4753,4.4788,4.4799,4.4928,4.4845,4.4852,4.4857,4.486,4.514,4.5142,0,0,0,0,0,0,4.4338,4.4364,4.4552,4.456,4.4439,4.4541,4.4558,4.4602,4.4692,4.4704,4.4637,4.4636,4.4775,4.479,4.4804,4.4922,4.4853,4.486,4.4865,4.5137,4.514,4.5143,0,0,0,0,0,0,4.4332,4.4354,4.4546,4.4463,4.4488,4.4548,4.4597,4.4606,4.464,4.4707,4.4718,4.4661,4.4774,4.4793,4.4886,4.4927,4.4864,4.4871,4.5134,4.5138,4.5142,4.5155,0,0,0,0,0,0,4.4325,4.4352,4.4387,4.4463,4.4492,4.4624,4.4599,4.461,4.4654,4.4653,4.4732,4.4743,4.4774,4.4874,4.4894,4.4937,4.4878,4.513,4.5136,4.514,4.5151,4.5159,4.5166,0,0,0,0,0,4.4316,4.4384,4.4388,4.4411,4.4536,4.4626,4.4643,4.4675,4.4657,4.4693,4.4737,4.4741,4.4919,4.4883,4.4906,4.4952,4.5128,4.5134,4.514,4.5148,4.5158,4.5166,0,0,0,0,0,0,4.4311,4.4395,4.44,4.4495,4.4554,4.4628,4.4675,4.4684,4.4749,4.4746,4.4785,4.4803,4.4895,4.4932,4.4891,4.5049,4.5022,4.5033,4.5021,4.503,4.5037,4.5027,4.4884,0,0,0,0,0,4.4321,4.4386,4.4456,4.4533,4.4562,4.4614,4.4654,4.4675,4.4737,4.4762,4.4812,4.4873,4.4943,4.4988,4.5056,4.5157,4.5176,4.52,4.5207,4.5212,4.5222,4.5282,4.5294,4.5163,4.5162,4.5162,0,0,4.4342,4.4396,4.4435,4.4534,4.4581,4.465,4.4634,4.4706,4.4758,4.4773,4.4864,4.4904,4.4975,4.5073,4.5118,4.5107,4.5263,4.522,4.5224,4.5231,4.5289,4.5302,4.5313,4.5167,4.5166,4.5165,0,0,4.4417,4.4463,4.4534,4.4583,4.4655,4.4689,4.4706,4.4781,4.4808,4.49,4.4913,4.4976,4.5095,4.5147,4.5188,4.5286,4.5293,4.5307,4.5345,4.5403,4.5413,4.5422,4.546,4.5473,4.5315,4.5315,4.5316,0,4.4435,4.4537,4.457,4.4643,4.4687,4.4704,4.4778,4.4824,4.4915,4.4946,4.4932,4.5084,4.5133,4.5245,4.5269,4.5301,4.5324,4.5298,4.5409,4.5418,4.5428,4.5465,4.5478,4.5317,4.5317,4.5317,4.5316,0,4.4557,4.4628,4.4677,4.4765,4.4815,4.4888,4.4934,4.4982,4.4999,4.5035,4.5131,4.519,4.5272,4.53,4.5317,4.5416,4.5407,4.54,4.5375,4.5441,4.5477,4.5491,4.5319,4.5318,4.5318,4.5318,0,0,4.4632,4.4739,4.4757,4.4798,4.4881,4.4937,4.5012,4.5092,4.5134,4.5196,4.5262,4.5364,4.5359,4.5407,4.543,4.548,4.5558,4.5468,4.547,4.5485,4.5675,4.5681,4.5697,4.5563,4.5566,4.5568,4.567,0,4.4718,4.4851,4.4885,4.4999,4.5068,4.5086,4.5152,4.521,4.5247,4.5312,4.5353,4.5426,4.5412,4.5441,4.5492,4.5538,4.5597,4.553,4.5627,4.563,4.5611,4.5715,4.5721,4.5815,4.5684,4.5686,4.5688,0,4.4836,4.4902,4.5023,4.51,4.513,4.5188,4.5267,4.5327,4.5395,4.5419,4.5473,4.5492,4.5574,4.5543,4.5658,4.5612,4.5654,4.5683,4.5688,4.57,4.5664,4.5732,4.5845,4.586,4.5709,4.5707,4.5706,0,4.4882,4.5001,4.5091,4.5125,4.5216,4.5257,4.5297,4.5363,4.5411,4.5479,4.5511,4.5588,4.5631,4.5691,4.5732,4.5705,4.5845,4.5817,4.5869,4.5868,4.5899,4.5897,4.6022,4.5922,4.5921,4.5921,4.5921,0,4.4976,4.505,4.5113,4.5168,4.5253,4.5292,4.5375,4.5416,4.5475,4.5541,4.556,4.5621,4.567,4.5739,4.5771,4.5863,4.5882,4.5905,4.5913,4.5905,4.5902,4.5934,4.5929,4.5925,4.5924,4.5923,4.5923,0,4.5042,4.5087,4.5186,4.5264,4.5286,4.5345,4.5413,4.5469,4.5507,4.5589,4.5611,4.5671,4.5753,4.5799,4.5902,4.5924,4.6028,4.6031,4.6005,4.6009,4.606,4.6056,4.6212,4.6236,4.6117,4.6118,4.6119,0,4.51,4.5158,4.5243,4.5288,4.5329,4.5401,4.545,4.5491,4.5541,4.5625,4.5671,4.5754,4.5823,4.5954,4.6008,4.6087,4.6095,4.6144,4.6107,4.6098,4.6099,4.6096,4.6104,4.6151,4.6152,4.6153,4.6154,0,4.52,4.522,4.5288,4.5366,4.5424,4.5487,4.555,4.5586,4.5638,4.5694,4.5778,4.5832,4.5938,4.6021,4.6106,4.6149,4.6162,4.6165,4.6182,4.6175,4.6159,4.6172,4.6025,4.6162,4.6161,4.616,4.616,4.616,4.5266,4.532,4.5389,4.5466,4.5518,4.5577,4.5634,4.568,4.575,4.5839,4.586,4.5949,4.602,4.6135,4.618,4.6253,4.6244,4.6267,4.6274,4.628,4.6283,4.6145,4.6268,4.6268,4.6267,4.6267,4.6267,0,4.537,4.5415,4.5486,4.5574,4.5635,4.564,4.5711,4.5763,4.5841,4.5905,4.5973,4.6072,4.6154,4.6215,4.6299,4.6345,4.6354,4.6367,4.6365,4.6375,4.6285,4.6263,4.6359,4.6359,4.6359,4.6359,4.6359,4.6359,4.5431,4.5523,4.5551,4.5671,4.5717,4.5804,4.5845,4.5901,4.5952,4.6061,4.6129,4.6168,4.6233,4.6322,4.6399,4.6415,4.6446,4.6459,4.6476,4.6391,4.6381,4.6372,4.6352,4.6465,4.6465,4.6561,4.6562,4.6563]}]]